Tracking 35275 objects as of 9-Sep-2026
HD Live streaming from Space Station
objects crossing your sky now

STARLINK-33900

Track STARLINK-33900 now!
10-day predictions
STARLINK-33900 is classified as:


NORAD ID: 63800
Int'l Code: 2025-091AB
Launch date: May 2, 2025
Source: United States (US)
Launch site: AIR FORCE EASTERN TEST RANGE (AFETR)
Your satellite tracking list
Your tracking list is empty




NASA's NSSDC Master Catalog

Two Line Element Set (TLE):
1 63800U 25091AB  26250.98760229  .00015301  00000-0  56372-3 0  9998
2 63800  43.0032 102.8823 0001179 271.5701  88.5015 15.27618283 76896
Source of the keplerian elements: AFSPC